Temp
-12 -11 -11 -11 -12 -12 -12 -12 -12 -12 -12 -12 -12 -12 -12 -12 -12 -13 -13 -13 -13 -13 -13 -13 -13 -14 -14 -14 -14 -14 -14 -14 -14 -14 -14 -14 -14 -14 -14 -14 -14 -14
-12 -11 -11 -12 -12 -12 -12 -12 -12 -12 -12 -12 -12 -12 -12 -12 -13 -13 -13 -13 -13 -13 -13 -13 -14 -14 -14 -14 -14 -14 -14 -14 -14 -14 -14 -14 -14 -14 -14 -14 -14 -14
-12 -12 -12 -12 -12 -12 -12 -12 -12 -12 -12 -12 -13 -12 -12 -12 -13 -13 -13 -13 -13 -13 -13 -14 -14 -14 -14 -14 -14 -14 -14 -14 -14 -15 -15 -15 -15 -15 -15 -14 -15 -15
-12 -12 -12 -12 -12 -12 -12 -12 -12 -12 -12 -13 -13 -12 -12 -13 -13 -13 -13 -13 -13 -13 -14 -14 -14 -14 -14 -14 -14 -14 -14 -14 -15 -15 -15 -15 -15 -15 -15 -15 -15 -15
-12 -12 -12 -12 -12 -12 -12 -12 -12 -12 -12 -13 -13 -13 -13 -13 -13 -13 -13 -13 -13 -13 -14 -14 -14 -14 -14 -14 -14 -14 -14 -15 -15 -15 -15 -15 -15 -15 -15 -15 -15 -15
-12 -12 -12 -12 -12 -12 -12 -12 -12 -12 -12 -13 -13 -13 -13 -13 -13 -13 -13 -13 -13 -13 -14 -14 -14 -14 -14 -14 -14 -14 -15 -15 -15 -15 -15 -15 -15 -15 -15 -15 -15 -15
-12 -12 -12 -12 -12 -12 -12 -12 -13 -13 -13 -13 -13 -13 -13 -13 -13 -13 -13 -13 -13 -14 -14 -14 -14 -14 -14 -14 -14 -14 -15 -15 -15 -15 -15 -15 -15 -15 -15 -15 -15 -15
-12 -12 -12 -12 -12 -12 -12 -12 -13 -13 -13 -13 -13 -13 -13 -13 -13 -13 -13 -13 -14 -14 -14 -14 -14 -14 -14 -14 -14 -15 -15 -15 -15 -15 -15 -15 -15 -15 -15 -16 -16 -16
-12 -12 -12 -12 -12 -12 -12 -13 -13 -13 -13 -13 -13 -13 -13 -13 -13 -13 -13 -14 -14 -14 -14 -14 -14 -14 -14 -14 -14 -15 -15 -15 -15 -15 -15 -15 -15 -15 -16 -16 -16 -16
-12 -12 -12 -12 -12 -12 -12 -13 -13 -13 -13 -13 -13 -13 -13 -13 -13 -14 -14 -14 -14 -14 -14 -14 -14 -14 -14 -15 -15 -15 -15 -15 -15 -15 -15 -15 -15 -15 -16 -16 -16 -16
-13 -12 -12 -12 -12 -12 -13 -13 -13 -13 -13 -13 -13 -14 -13 -14 -14 -14 -14 -14 -14 -14 -14 -14 -14 -14 -15 -15 -15 -15 -15 -15 -15 -15 -15 -15 -15 -16 -16 -16 -16 -16
-13 -12 -12 -12 -12 -12 -13 -13 -13 -13 -13 -13 -14 -14 -14 -14 -14 -14 -14 -14 -14 -14 -14 -14 -14 -15 -15 -15 -15 -15 -15 -15 -15 -15 -15 -15 -15 -16 -16 -16 -16 -16
-13 -12 -12 -12 -12 -13 -13 -13 -13 -13 -13 -13 -14 -14 -14 -14 -14 -14 -14 -14 -14 -14 -14 -14 -15 -15 -15 -15 -15 -15 -15 -15 -15 -15 -15 -15 -15 -16 -16 -16 -16 -16
-13 -12 -12 -12 -12 -13 -13 -13 -13 -13 -13 -14 -14 -14 -14 -14 -14 -14 -14 -14 -14 -14 -15 -15 -15 -15 -15 -15 -15 -15 -15 -15 -15 -15 -15 -15 -16 -16 -16 -16 -16 -16
-13 -12 -12 -12 -13 -13 -13 -13 -13 -13 -14 -14 -14 -14 -14 -14 -14 -14 -14 -14 -14 -14 -15 -15 -15 -15 -15 -15 -15 -15 -15 -15 -15 -15 -15 -16 -16 -16 -16 -16 -16 -16
-13 -12 -12 -13 -13 -13 -13 -13 -13 -14 -14 -14 -14 -14 -14 -14 -14 -14 -14 -14 -14 -15 -15 -15 -15 -15 -15 -15 -15 -15 -15 -15 -15 -15 -16 -16 -16 -16 -16 -16 -16 -16
-13 -12 -12 -13 -13 -13 -13 -13 -14 -14 -14 -14 -14 -14 -14 -14 -14 -14 -14 -14 -14 -15 -15 -15 -15 -15 -15 -15 -15 -15 -15 -15 -15 -16 -16 -16 -16 -16 -16 -16 -16 -16
-12 -12 -13 -13 -13 -13 -13 -14 -14 -14 -14 -14 -14 -14 -14 -14 -14 -14 -14 -14 -14 -15 -15 -15 -15 -15 -15 -15 -15 -15 -15 -15 -16 -16 -16 -16 -16 -16 -16 -16 -16 -16
-13 -13 -13 -13 -13 -13 -14 -14 -14 -13 -13 -14 -14 -14 -14 -14 -14 -14 -14 -14 -14 -15 -15 -15 -15 -15 -15 -15 -15 -15 -16 -16 -16 -16 -16 -16 -16 -16 -16 -16 -16 -16
-13 -13 -13 -13 -13 -13 -14 -14 -13 -13 -13 -14 -14 -14 -14 -14 -14 -14 -14 -14 -15 -15 -15 -15 -15 -15 -15 -15 -15 -16 -16 -16 -16 -16 -16 -16 -16 -16 -16 -16 -16 -16
-13 -13 -13 -13 -13 -13 -14 -13 -13 -13 -13 -14 -14 -14 -14 -14 -14 -14 -14 -14 -14 -15 -15 -15 -15 -15 -15 -15 -15 -15 -15 -15 -16 -16 -16 -16 -16 -16 -16 -16 -16 -16
-13 -13 -13 -13 -13 -13 -13 -13 -13 -13 -14 -14 -14 -14 -14 -14 -14 -14 -14 -14 -15 -15 -15 -15 -15 -15 -15 -15 -15 -15 -15 -15 -16 -15 -15 -16 -16 -16 -16 -16 -16 -16
-13 -14 -14 -13 -13 -14 -14 -13 -13 -13 -13 -14 -14 -14 -14 -14 -14 -14 -14 -15 -15 -15 -15 -15 -15 -15 -15 -15 -15 -15 -15 -15 -15 -15 -15 -15 -15 -15 -16 -16 -16 -16
-14 -14 -14 -14 -14 -14 -14 -14 -14 -14 -14 -14 -14 -14 -14 -14 -14 -14 -14 -15 -14 -14 -14 -15 -15 -14 -15 -15 -15 -15 -15 -15 -15 -15 -15 -15 -15 -15 -16 -16 -16 -16
-13 -13 -14 -14 -14 -14 -14 -14 -14 -14 -14 -14 -14 -14 -14 -14 -14 -14 -14 -14 -14 -14 -14 -14 -14 -14 -15 -15 -14 -14 -15 -15 -15 -15 -15 -15 -15 -15 -15 -15 -16 -16
-13 -14 -14 -14 -14 -14 -14 -14 -14 -14 -14 -14 -14 -14 -14 -15 -15 -15 -14 -14 -14 -14 -14 -14 -15 -15 -15 -15 -14 -14 -14 -15 -15 -15 -15 -15 -15 -15 -15 -16 -16 -16
Height
5798 5798 5798 5798 5798 5798 5798 5798 5798 5798 5798 5798 5798 5799 5799 5799 5800 5800 5801 5801 5802 5802 5802 5802 5803 5803 5803 5803 5803 5804 5804 5804 5803 5803 5802 5801 5800 5799 5798 5797 5795 5794
5796 5796 5796 5796 5796 5796 5796 5796 5796 5795 5795 5796 5796 5796 5797 5797 5798 5798 5799 5799 5800 5800 5800 5800 5801 5801 5801 5801 5801 5802 5802 5802 5801 5801 5800 5799 5798 5797 5796 5795 5793 5792
5794 5794 5794 5794 5794 5794 5794 5794 5794 5793 5793 5794 5794 5794 5795 5795 5795 5796 5797 5797 5797 5797 5798 5798 5798 5799 5799 5799 5799 5800 5800 5800 5799 5799 5798 5797 5796 5795 5794 5792 5791 5789
5791 5792 5792 5792 5792 5792 5792 5792 5791 5791 5791 5792 5792 5792 5793 5793 5793 5794 5794 5795 5795 5795 5795 5796 5796 5796 5797 5797 5797 5798 5798 5797 5797 5797 5796 5795 5794 5793 5792 5790 5789 5787
5789 5790 5790 5790 5790 5790 5790 5790 5789 5789 5789 5790 5789 5790 5790 5790 5791 5791 5792 5792 5792 5792 5793 5794 5794 5794 5795 5795 5795 5796 5796 5795 5795 5794 5794 5793 5792 5791 5789 5788 5786 5784
5787 5787 5787 5787 5787 5787 5787 5787 5787 5786 5787 5788 5787 5787 5788 5788 5788 5789 5789 5790 5790 5790 5791 5791 5792 5792 5792 5793 5793 5793 5793 5793 5793 5792 5791 5791 5790 5788 5787 5786 5784 5782
5785 5785 5785 5785 5785 5785 5784 5784 5784 5784 5784 5785 5785 5785 5785 5786 5786 5787 5787 5787 5787 5788 5789 5789 5790 5790 5790 5790 5791 5791 5791 5791 5790 5790 5789 5788 5787 5786 5785 5783 5781 5779
5782 5783 5783 5783 5782 5782 5782 5782 5782 5782 5782 5782 5782 5782 5783 5784 5784 5784 5785 5785 5785 5786 5786 5787 5787 5787 5788 5788 5788 5788 5788 5788 5788 5787 5787 5786 5785 5783 5782 5780 5779 5777
5780 5781 5781 5781 5780 5780 5780 5780 5780 5780 5780 5780 5780 5780 5781 5782 5782 5782 5782 5783 5783 5784 5784 5785 5785 5785 5785 5786 5786 5786 5786 5786 5785 5785 5784 5783 5782 5781 5779 5778 5776 5774
5777 5778 5778 5778 5778 5777 5777 5777 5777 5777 5777 5777 5778 5778 5779 5779 5779 5779 5780 5780 5781 5782 5782 5782 5783 5783 5783 5783 5783 5783 5783 5783 5783 5782 5782 5780 5779 5778 5777 5775 5773 5771
5774 5775 5775 5775 5775 5775 5775 5775 5775 5775 5775 5775 5775 5776 5776 5776 5777 5777 5778 5779 5779 5780 5780 5780 5780 5780 5780 5780 5781 5781 5781 5780 5780 5780 5779 5778 5776 5775 5774 5772 5771 5769
5772 5772 5772 5773 5773 5773 5773 5773 5773 5773 5772 5773 5773 5773 5774 5774 5775 5776 5776 5777 5777 5778 5778 5778 5778 5778 5778 5778 5778 5778 5778 5778 5777 5777 5776 5775 5773 5772 5771 5770 5768 5766
5769 5770 5770 5770 5770 5770 5771 5771 5771 5771 5771 5771 5771 5771 5772 5772 5773 5774 5775 5775 5775 5776 5776 5775 5776 5776 5776 5776 5775 5775 5775 5775 5774 5774 5773 5772 5771 5769 5768 5767 5765 5763
5766 5767 5767 5768 5768 5768 5769 5769 5769 5769 5769 5769 5769 5770 5770 5771 5772 5773 5773 5773 5773 5773 5773 5773 5773 5773 5773 5773 5772 5772 5772 5772 5771 5771 5770 5769 5767 5766 5765 5763 5762 5760
5763 5764 5765 5765 5766 5766 5766 5767 5767 5767 5767 5767 5767 5768 5768 5769 5770 5770 5770 5770 5771 5771 5771 5771 5771 5771 5770 5770 5769 5769 5769 5768 5768 5767 5766 5765 5764 5763 5762 5760 5758 5757
5761 5762 5762 5763 5763 5764 5764 5765 5765 5765 5765 5765 5765 5766 5766 5766 5767 5767 5767 5768 5768 5768 5768 5768 5767 5768 5767 5766 5766 5766 5765 5765 5764 5763 5762 5761 5760 5759 5758 5756 5755 5753
5758 5759 5759 5760 5761 5761 5762 5762 5762 5762 5763 5763 5763 5763 5764 5764 5765 5765 5765 5765 5765 5765 5765 5764 5764 5764 5763 5762 5762 5762 5761 5761 5760 5759 5759 5757 5756 5755 5754 5753 5751 5750
5756 5756 5757 5758 5758 5759 5760 5760 5760 5760 5760 5760 5760 5761 5761 5762 5762 5762 5762 5761 5761 5761 5761 5760 5760 5760 5759 5758 5758 5758 5757 5756 5755 5755 5754 5753 5752 5751 5750 5749 5747 5746
5753 5754 5755 5755 5756 5757 5757 5757 5757 5757 5757 5758 5758 5759 5759 5759 5759 5759 5758 5758 5758 5758 5757 5757 5756 5756 5754 5754 5754 5753 5752 5752 5751 5751 5750 5749 5748 5747 5746 5744 5743 5742
5751 5751 5752 5753 5753 5753 5754 5754 5755 5755 5755 5755 5756 5756 5756 5756 5756 5755 5755 5754 5754 5753 5753 5753 5753 5752 5750 5749 5749 5748 5748 5747 5747 5746 5745 5744 5743 5742 5741 5740 5739 5738
5748 5749 5749 5750 5750 5750 5750 5751 5752 5752 5753 5753 5753 5753 5753 5752 5752 5752 5751 5751 5750 5750 5750 5750 5749 5747 5746 5744 5744 5743 5743 5742 5742 5742 5741 5740 5739 5737 5736 5736 5735 5733
5745 5746 5746 5746 5747 5747 5748 5748 5749 5749 5750 5750 5749 5749 5749 5749 5749 5748 5748 5747 5747 5746 5747 5746 5743 5741 5740 5739 5739 5739 5738 5738 5738 5737 5736 5735 5734 5732 5731 5731 5730 5729
5741 5742 5742 5743 5743 5743 5744 5745 5745 5746 5746 5746 5746 5745 5745 5745 5745 5745 5744 5744 5743 5742 5742 5740 5738 5736 5735 5735 5735 5734 5733 5733 5734 5733 5732 5731 5730 5728 5727 5727 5726 5724
5737 5738 5738 5739 5739 5739 5740 5741 5742 5742 5742 5742 5742 5742 5742 5742 5742 5741 5740 5740 5738 5737 5737 5736 5735 5733 5733 5734 5732 5730 5729 5729 5729 5729 5728 5727 5726 5725 5724 5723 5721 5720
5733 5734 5735 5735 5735 5736 5737 5738 5738 5738 5739 5739 5739 5739 5738 5738 5738 5737 5736 5736 5735 5733 5733 5733 5732 5731 5730 5730 5729 5727 5726 5725 5725 5725 5723 5721 5720 5720 5719 5718 5717 5715
5729 5730 5731 5731 5731 5732 5733 5734 5734 5734 5735 5735 5735 5735 5735 5734 5734 5733 5733 5732 5732 5731 5730 5729 5728 5727 5726 5725 5724 5723 5722 5722 5721 5720 5718 5717 5715 5715 5714 5713 5712 5711
Wind_Speed
17 19 19 19 20 20 21 22 23 23 23 22 20 18 16 15 15 16 17 18 18 19 19 19 18 17 14 12 13 14 15 15 16 17 19 20 21 22 23 24 26 27
17 18 18 18 19 19 19 20 21 22 22 21 20 18 16 15 16 16 16 17 17 18 19 19 18 16 14 13 14 15 16 16 17 18 19 20 21 22 24 25 26 26
17 17 18 18 19 19 20 21 22 23 23 22 20 18 17 16 16 16 16 16 17 19 19 18 17 15 14 14 15 16 16 17 17 18 19 20 21 23 24 25 25 26
17 17 18 19 20 21 22 21 22 23 22 21 20 19 18 17 16 16 17 18 19 19 18 17 16 15 14 15 16 17 17 17 18 19 20 20 21 23 24 24 25 26
18 18 18 19 21 22 21 20 20 21 19 18 19 18 17 16 16 16 18 19 19 18 17 16 16 16 16 16 17 18 18 18 19 20 20 21 22 23 23 24 25 26
18 18 19 21 22 22 20 19 19 19 18 18 17 17 16 16 16 17 18 19 18 17 16 16 17 17 17 18 18 18 18 19 20 20 21 21 22 23 23 24 25 26
18 18 19 21 22 22 20 19 19 19 19 18 17 16 16 16 17 18 19 18 18 17 17 17 17 18 19 19 19 19 19 20 21 21 22 22 22 23 24 25 26 27
18 18 19 20 22 22 20 19 20 20 20 19 19 18 17 17 18 19 19 18 17 17 17 18 19 19 20 20 20 20 21 21 22 22 22 23 23 24 24 26 27 27
18 18 19 20 22 23 21 20 20 21 21 21 20 19 18 18 19 19 18 18 18 18 18 19 20 20 21 22 22 22 22 23 23 23 23 23 24 25 25 27 28 28
18 18 19 20 22 23 22 21 21 21 22 21 20 19 18 18 19 18 18 18 18 19 19 20 21 22 22 23 23 23 24 24 24 24 24 25 25 26 27 28 29 29
19 19 20 21 22 23 22 21 20 20 20 20 20 19 18 18 19 18 18 19 19 20 20 21 22 23 24 24 24 25 25 26 26 26 25 26 26 27 28 29 29 30
20 20 20 21 22 22 22 21 20 20 20 20 20 19 18 19 19 19 19 20 20 21 21 22 23 24 25 26 26 26 27 27 27 27 27 27 27 28 29 30 30 31
21 21 21 21 21 21 21 20 19 19 19 19 19 18 19 19 19 19 20 21 21 22 23 24 25 26 27 27 28 28 29 29 28 28 28 28 29 30 30 31 31 31
21 21 21 21 21 21 20 19 18 18 18 18 19 19 19 19 19 20 21 22 23 24 25 26 27 28 29 29 30 30 30 30 30 29 29 29 30 31 31 32 32 32
22 21 21 21 20 19 18 17 17 17 17 18 19 20 20 20 21 22 23 24 25 26 27 28 29 29 30 31 32 32 32 32 31 31 30 30 31 32 33 33 34 33
21 22 22 21 20 18 17 16 16 17 17 18 19 21 22 22 23 24 25 26 27 28 28 29 30 30 31 32 33 33 34 34 33 33 32 32 32 33 34 35 34 34
21 21 21 20 18 17 16 16 17 17 17 18 19 21 23 24 25 26 27 28 28 29 29 30 30 31 32 33 34 34 35 35 35 34 33 33 34 34 35 36 35 35
21 20 19 18 17 16 16 17 17 17 18 19 20 21 23 25 26 27 29 29 29 30 31 32 32 32 33 34 34 35 36 36 37 36 35 35 35 35 36 37 37 36
20 19 17 16 16 16 17 18 18 19 20 21 21 21 23 25 27 28 30 31 31 32 33 33 33 33 34 35 35 36 37 38 38 37 37 37 37 37 38 38 38 37
19 18 16 15 16 18 19 19 20 21 22 21 21 22 23 25 27 28 31 32 33 34 35 35 34 35 36 36 36 37 38 38 39 38 38 39 39 39 39 39 38 37
20 18 17 17 18 20 21 21 22 22 22 22 23 23 25 26 27 28 30 31 32 34 36 37 38 38 39 40 39 39 39 39 38 39 40 39 40 42 42 40 38 38
21 20 20 21 22 22 23 23 24 23 23 24 25 25 26 26 27 28 29 30 32 34 36 39 42 43 43 43 42 41 41 40 38 38 40 41 43 44 41 38 37 38
23 22 23 24 24 25 25 25 25 25 25 25 26 26 26 26 26 27 28 29 31 32 33 37 42 45 46 46 46 46 45 42 39 38 39 41 42 42 39 37 37 38
26 26 26 26 26 27 27 26 26 26 26 26 26 26 26 26 26 27 27 28 30 31 32 34 37 40 40 40 42 45 44 40 38 38 38 40 42 43 40 38 37 38
29 29 28 28 29 29 28 27 26 26 26 26 26 26 26 26 26 27 27 28 30 31 31 31 32 33 33 33 34 35 34 34 36 37 38 41 41 39 35 33 35 37
30 30 30 30 30 30 28 27 26 26 26 26 26 26 26 26 26 27 28 28 29 30 31 31 32 34 34 34 33 31 29 31 34 36 37 37 32 30 29 31 34 36
Wind_Direction
280 282 283 283 281 280 280 280 282 282 280 277 277 277 274 267 264 261 258 255 256 263 267 267 265 263 263 267 275 281 283 288 293 298 304 308 311 313 314 316 316 316
282 284 284 282 279 277 278 278 280 280 278 276 275 276 274 269 263 259 255 254 257 263 268 267 263 259 261 268 274 278 281 286 292 298 303 307 310 312 314 315 315 315
284 284 281 278 275 275 277 279 280 279 278 274 271 271 272 269 263 257 255 257 261 265 266 262 258 257 262 268 272 275 279 284 291 298 302 305 308 311 312 314 315 314
284 282 278 276 275 276 278 280 279 278 275 269 265 267 268 266 260 255 257 261 264 264 261 256 255 258 263 267 269 272 277 285 292 297 301 304 307 309 311 314 315 314
283 281 278 277 277 277 279 280 278 274 269 263 262 264 263 262 259 257 260 264 265 262 256 253 255 260 264 265 266 270 277 285 291 295 299 303 305 308 312 314 316 316
282 280 280 280 280 281 282 281 278 272 266 262 262 262 261 262 262 262 263 265 264 258 252 253 257 261 263 262 264 270 277 283 289 294 297 300 304 308 312 316 318 318
280 280 281 281 281 282 283 281 278 271 266 265 267 267 265 264 263 264 264 262 258 253 251 255 259 261 262 262 265 270 276 283 288 293 296 299 304 308 313 318 320 320
278 278 278 279 280 280 280 279 276 271 269 272 273 271 267 263 261 261 259 255 251 250 253 257 261 262 262 262 266 271 277 282 287 291 295 299 303 308 314 318 320 320
276 276 276 276 277 278 278 277 275 273 274 275 273 267 262 260 259 256 252 249 248 251 256 261 263 262 262 263 266 271 276 281 286 289 293 298 303 307 312 316 318 319
274 275 276 275 274 276 277 277 276 276 277 274 268 262 259 257 255 252 249 247 249 254 259 263 264 263 263 263 266 270 275 280 285 288 292 297 301 305 309 312 316 317
272 274 275 274 273 274 276 279 280 280 278 273 265 260 257 254 252 249 248 249 253 258 263 266 266 265 264 264 267 270 274 279 284 287 292 296 299 303 306 310 313 315
270 273 274 273 273 273 275 279 281 283 281 273 264 259 256 253 252 250 251 254 259 265 269 270 269 268 266 266 268 271 274 278 283 287 291 295 298 300 304 308 311 313
269 272 273 272 271 272 274 277 280 284 283 274 264 260 258 256 255 255 257 262 267 271 274 274 273 271 269 269 270 272 274 277 282 286 290 293 296 298 302 306 309 310
267 270 271 271 269 269 271 274 278 282 281 273 265 262 262 263 264 264 266 269 272 275 276 276 276 275 272 271 271 272 275 278 282 286 289 291 294 296 300 304 307 307
266 268 269 269 266 265 267 270 275 278 278 272 266 265 267 268 268 269 270 272 274 276 277 278 278 277 275 274 273 274 276 279 282 284 286 289 291 295 298 301 304 305
266 268 268 267 264 263 264 265 269 273 274 271 268 267 267 267 268 269 271 273 274 276 278 278 279 279 277 276 275 276 277 278 280 282 285 287 290 293 295 299 302 303
267 268 267 265 264 263 262 262 265 268 271 272 270 268 268 269 270 270 271 272 274 275 277 277 277 278 276 276 276 277 277 278 279 281 283 285 288 291 293 296 299 301
266 266 264 264 265 264 262 261 263 265 267 268 268 269 271 272 272 271 272 272 273 273 274 274 275 276 275 276 276 276 277 277 279 281 283 285 286 289 291 294 297 299
264 263 262 263 263 262 261 259 260 261 263 265 268 272 273 273 272 272 271 272 273 273 272 272 273 273 274 275 276 277 277 278 280 282 283 284 286 287 288 291 294 297
263 261 261 260 258 256 256 256 257 261 264 267 269 270 271 271 271 271 272 273 274 273 272 272 272 273 274 275 276 276 277 279 281 283 284 285 285 286 286 288 291 294
262 260 258 255 253 253 254 257 260 264 266 267 267 267 267 269 271 272 275 276 277 275 274 274 274 275 277 277 276 277 278 279 281 284 285 285 285 284 284 285 288 292
262 258 255 254 254 255 256 258 262 265 266 267 267 268 269 271 274 276 279 281 282 282 280 278 277 278 279 279 280 281 280 278 282 288 290 290 290 287 284 285 288 290
261 256 254 255 256 255 256 260 263 265 267 268 270 272 274 277 279 282 284 286 286 287 286 283 281 280 280 282 285 287 286 282 284 293 296 294 293 290 287 290 291 289
260 259 258 257 256 256 258 263 265 267 270 272 273 276 277 279 281 283 286 288 289 292 293 291 288 286 286 290 291 291 292 288 286 292 298 297 293 289 289 291 288 286
263 264 261 258 258 259 262 265 267 269 271 272 273 275 277 278 280 281 284 287 290 294 296 296 295 293 294 299 299 295 293 290 287 292 299 299 294 288 286 286 285 287
265 264 262 261 261 263 265 266 266 267 268 270 273 275 277 278 278 279 283 287 289 291 292 294 295 295 296 299 301 299 293 289 289 294 300 300 291 283 284 287 288 290